Regional Weather Roundup
Issued by NWS Green Bay, WI

Home | Current Version | Previous Version | Text Only | Print | Product List | Glossary On
Versions: 1 2 3 4 5 6 7 8 9 10 11 12 13 14 15 16 17 18 19 20 21 22 23 24 25 26 27 28 29 30 31 32 33 34 35 36 37 38 39 40 41 42 43 44 45 46 47 48 49 50
000
ASUS43 KGRB 180659
RWRGRB

NORTH-CENTRAL AND NORTHEAST WISCONSIN REGIONAL WEATHER ROUNDUP
NATIONAL WEATHER SERVICE GREEN BAY WI
200 AM CDT FRI APR 18 2014

WIZ005-009-010>012-018-019-180800-
NORTH CENTRAL WISCONSIN

CITY           SKY/WX    TMP DP  RH WIND       PRES   REMARKS
IRONWOOD       CLEAR     27  21  80 W3        30.26S
MANITOWISH WTR NOT AVBL
ARBOR VITAE    NOT AVBL
EAGLE RIVER    NOT AVBL
LAND O LAKES   NOT AVBL
RHINELANDER    CLOUDY    31  23  72 NW8       30.28R
PHILLIPS       NOT AVBL
ANTIGO         NOT AVBL
TOMAHAWK       NOT AVBL
MERRILL        NOT AVBL
$$

WIZ013-073-180800-
NORTHEAST WISCONSIN

CITY           SKY/WX    TMP DP  RH WIND       PRES   REMARKS
IRON MOUNTAIN  CLOUDY    33  25  72 NW10      30.25S
MARINETTE      CLOUDY    34  27  75 NW3       30.28S
$$

WIZ017-030-035>037-045-180800-
CENTRAL WISCONSIN

CITY           SKY/WX    TMP DP  RH WIND       PRES   REMARKS
MEDFORD        NOT AVBL
WAUSAU         CLOUDY    33  24  69 NW7       30.28S
MOSINEE        NOT AVBL
MARSHFIELD     CLOUDY    34  26  72 N6        30.30R
WISC RAPIDS    CLOUDY    35  26  69 N7        30.32R
STEVENS POINT  NOT AVBL
WAUPACA        NOT AVBL
SHAWANO        NOT AVBL
CLINTONVILLE   NOT AVBL
$$

WIZ038-039-048-051-180800-
FOX VALLEY

CITY           SKY/WX    TMP DP  RH WIND       PRES   REMARKS
NWS GREEN BAY  CLOUDY    37  32  82 NW3       30.29S
APPLETON       NOT AVBL
OSHKOSH        PTCLDY    33  28  81 W5        30.29R
FOND DU LAC    CLEAR     32  28  85 NW7       30.29R
$$

WIZ022-050-052-180800-
EAST CENTRAL WISCONSIN

CITY           SKY/WX    TMP DP  RH WIND       PRES   REMARKS
STURGEON BAY   CLOUDY    36  28  75 N7        30.28S
MANITOWOC      NOT AVBL
SHEBOYGAN      CLEAR     36  31  82 NW6       30.27F
$$

LMZ563-521-522-541>543-180800-
LAKESHORE

STATION/POSITION TIME  TEMP    WIND        PRES    VSBY  WAVE
                       AIR SEA DIR/SP/G                  HT/PER
                 (UTC) (F)     (DEG/KT/KT) (MB)    (MI)  (FT/S)
SHEBOYGAN LKSHOR 0600   40     350/  8/  9 1026.1R
KEWAUNEE LKSHORE 0600   40     310/  4/  6 1025.7S
NORTHPORT PIER   0600   36     300/  7/ 10 1025.1S
SISTER BAY LKSHO 0600   34        CALM       N/A
MENOMINEE LKSHOR 0600   36     290/  7/  9 1025.7F
$$



USA.gov is the U.S. government's official web portal to all federal, state and local government web resources and services.